Vorticity
nan nan nan nan nan nan nan nan nan nan nan nan nan nan nan nan nan nan nan nan nan nan nan nan nan nan nan nan nan nan nan nan nan nan nan nan nan nan nan nan nan nan nan nan
nan 9 9 8 9 -2 -2 9 13 12 8 6 6 10 6 -0 11 6 8 10 6 5 12 12 13 9 3 13 13 11 10 4 8 7 12 13 7 4 6 8 11 6 5 nan
nan 8 9 8 8 -4 -2 9 6 14 7 13 17 5 12 2 4 8 4 8 6 10 9 6 10 11 8 10 6 9 16 14 9 7 4 5 4 3 8 6 -2 11 6 nan
nan 8 9 9 9 -1 -5 9 12 11 18 16 10 8 11 16 5 11 3 9 11 4 4 12 13 7 5 5 9 15 12 9 8 9 4 3 5 11 9 3 3 5 1 nan
nan 8 10 9 8 0 -2 8 7 11 16 22 13 5 4 10 6 7 6 -1 11 8 4 11 9 10 16 8 8 7 11 14 11 6 11 8 9 11 10 12 13 12 10 nan
nan 9 9 10 3 -9 2 6 9 14 9 13 16 10 5 0 5 6 14 8 5 11 16 12 10 11 10 17 12 8 8 11 7 5 8 7 21 22 21 19 18 17 17 nan
nan 9 10 10 6 -15 -7 10 12 11 12 15 8 6 14 17 9 3 8 20 11 13 14 7 7 7 10 10 12 11 9 8 5 10 7 9 12 17 21 18 14 15 13 nan
nan 10 10 10 9 -7 -11 8 10 10 14 11 22 16 6 14 14 16 8 5 21 14 2 6 7 7 12 6 10 15 12 8 8 14 4 10 14 13 16 12 6 11 15 nan
nan 11 11 11 10 -1 -7 3 10 12 17 11 12 23 22 14 13 7 12 8 11 9 12 13 11 6 11 10 3 8 11 12 10 8 11 14 16 10 10 14 8 9 11 nan
nan 12 11 12 11 1 -6 5 9 7 9 13 14 14 16 18 14 11 8 10 7 12 12 10 11 13 10 11 9 6 6 12 13 5 6 11 14 7 8 12 10 8 8 nan
nan 11 11 11 11 4 -3 5 11 8 5 5 8 18 18 17 17 9 5 7 10 15 14 10 10 13 9 11 11 14 9 7 11 12 11 11 7 9 14 8 10 8 6 nan
nan 11 11 12 12 7 -5 -2 8 15 14 11 8 11 10 9 14 14 12 5 14 11 8 11 11 10 13 11 7 12 16 10 11 10 9 13 9 10 10 11 8 8 8 nan
nan 12 11 11 10 6 -6 1 8 9 9 9 11 8 7 6 10 12 8 12 14 10 12 12 11 12 12 10 11 4 14 15 5 11 10 9 10 12 13 11 10 11 11 nan
nan 13 13 12 10 5 -4 1 7 6 12 11 8 10 8 9 12 17 16 14 10 9 12 14 11 12 11 9 12 13 11 11 10 4 7 11 12 10 9 8 10 14 15 nan
nan 14 14 12 10 2 -8 5 11 10 10 9 10 8 7 18 20 18 19 12 7 9 11 11 11 8 10 11 10 12 18 15 14 11 14 11 4 5 11 15 11 10 14 nan
nan 13 10 8 8 -4 -5 6 12 13 11 12 10 9 7 10 14 13 11 9 9 13 11 10 12 11 11 12 11 11 10 15 16 14 11 11 11 8 11 14 13 15 15 nan
nan 11 12 13 3 -5 5 10 23 11 3 12 12 9 10 9 9 8 6 11 14 11 10 10 10 14 10 10 14 13 9 10 11 15 12 7 13 14 9 11 12 12 10 nan
nan 12 10 9 -6 -4 10 29 21 -5 4 13 11 11 12 10 10 11 11 9 10 12 13 9 11 10 9 11 17 12 7 7 10 13 14 13 7 7 11 10 9 8 8 nan
nan 11 -2 -7 2 18 24 13 -3 3 13 12 13 12 10 9 8 10 12 10 13 12 8 14 12 10 14 20 14 10 10 12 9 4 6 8 10 8 8 11 10 7 10 nan
nan -7 6 13 24 16 -1 1 8 11 14 11 10 11 16 10 9 10 11 11 11 13 8 12 10 9 11 19 13 10 12 14 12 9 8 9 8 10 8 9 10 10 12 nan
nan 13 13 17 10 -2 7 14 11 11 12 11 11 14 10 8 12 12 10 11 11 11 14 11 10 11 13 12 11 10 8 10 12 13 10 10 9 9 10 10 9 9 11 nan
nan 9 10 9 7 11 12 10 11 14 12 11 14 12 6 13 11 11 14 10 12 16 12 9 14 18 19 10 8 7 8 10 8 9 9 8 11 10 10 10 10 12 9 nan
nan 8 14 10 12 14 14 7 7 15 15 18 14 7 7 9 12 11 15 14 13 9 10 12 14 17 15 10 7 9 10 9 9 8 9 9 7 8 11 9 12 11 7 nan
nan 13 12 10 8 10 13 13 14 18 23 16 5 3 11 11 12 12 11 11 12 8 12 14 15 17 10 8 9 9 8 9 12 10 8 8 6 8 10 11 14 8 8 nan
nan 13 11 10 9 15 17 18 20 21 13 2 0 8 13 13 13 12 10 13 11 13 12 17 17 12 8 10 11 10 9 10 12 11 12 10 9 8 7 13 13 10 12 nan
nan 11 10 13 15 18 22 18 14 8 2 1 10 15 11 13 11 13 14 11 10 13 18 17 14 10 9 9 11 10 11 12 10 11 12 11 10 8 11 14 11 11 12 nan
nan nan nan nan nan nan nan nan nan nan nan nan nan nan nan nan nan nan nan nan nan nan nan nan nan nan nan nan nan nan nan nan nan nan nan nan nan nan nan nan nan nan nan nan
CAPE
18 0 0 0 0 0 3 1 17 43 53 3 42 2 5 0 0 0 0 4 51 85 79 94 55 89 129 0 0 1 0 11 0 0 0 0 0 0 0 11 0 0 0 0
25 6 0 0 0 0 17 2 4 54 3 1 1 0 0 0 0 0 0 0 19 87 146 86 135 72 0 1 16 0 0 0 0 0 0 0 0 0 0 15 0 1 0 0
40 13 0 0 0 0 23 28 27 21 42 0 0 2 0 0 0 0 0 0 61 74 91 113 71 74 16 0 0 0 0 0 0 0 0 0 0 0 0 0 1 0 7 0
51 31 14 0 4 14 42 34 0 0 0 5 5 8 10 3 5 0 0 1 0 19 23 50 83 88 3 0 0 0 0 0 0 0 0 0 0 0 0 0 0 0 0 1
60 61 44 28 16 43 31 6 13 0 0 0 0 4 0 1 0 1 0 0 25 42 43 24 27 44 12 37 0 0 0 0 0 0 0 0 0 0 0 0 0 4 3 1
61 79 64 51 48 51 17 0 4 27 0 16 11 0 0 1 11 8 0 0 5 53 24 31 0 0 0 3 0 0 0 0 1 3 0 1 0 0 0 0 0 0 5 0
73 77 81 68 59 20 0 0 55 35 0 0 0 2 7 16 15 1 21 5 8 7 0 0 0 0 0 0 0 0 0 0 0 0 0 1 0 0 0 0 0 0 2 0
68 63 83 72 57 39 0 65 12 25 4 3 13 0 0 33 9 19 6 1 0 0 0 0 11 1 0 0 0 0 0 0 0 0 1 0 0 0 0 0 0 0 0 0
58 56 72 62 57 73 10 14 0 26 18 0 5 38 42 9 2 3 0 0 0 0 0 0 2 1 0 0 1 1 0 0 0 0 0 0 0 0 0 0 0 0 0 0
64 67 61 62 67 77 61 16 1 0 5 0 4 14 7 14 2 1 0 0 0 0 0 0 0 1 0 4 0 1 2 0 0 0 0 0 0 0 0 0 0 0 0 0
67 71 65 68 73 83 65 12 10 0 14 0 1 1 0 21 19 0 0 0 0 0 0 0 0 0 0 0 0 0 0 0 0 0 0 0 0 0 0 0 0 0 0 0
74 67 64 55 60 56 71 16 0 0 3 0 0 0 1 1 1 0 0 0 0 0 0 0 0 0 0 0 0 0 0 0 1 0 0 0 0 0 0 0 0 0 0 0
70 72 70 82 76 64 36 0 0 0 0 0 0 0 0 0 0 2 0 0 0 0 0 0 0 0 0 0 0 0 0 0 0 0 0 0 0 0 0 0 0 0 0 0
65 80 77 78 65 44 38 0 0 0 0 0 0 2 0 0 0 0 0 0 0 0 0 0 0 0 0 0 0 0 0 0 0 0 0 0 0 0 0 0 0 0 0 0
70 78 75 68 70 62 39 0 0 0 0 0 0 1 0 0 0 0 0 0 0 0 0 0 0 1 0 0 0 0 0 0 0 0 0 0 0 0 0 0 0 0 0 0
29 36 34 30 38 49 27 1 0 0 0 0 0 1 3 2 1 1 0 0 0 0 0 1 3 0 0 0 0 0 0 0 0 0 0 0 0 0 0 0 0 0 0 0
22 24 37 38 42 37 25 4 0 0 0 0 0 1 3 4 4 1 1 0 3 0 0 0 0 0 0 0 0 0 0 0 0 0 0 0 0 0 0 0 0 0 1 5
40 31 30 48 33 20 17 0 1 0 0 0 0 3 1 3 1 1 6 0 2 1 0 0 0 0 0 1 0 0 0 0 0 0 0 0 0 0 0 0 0 0 1 2
42 45 37 1 1 0 0 3 0 0 0 0 1 0 0 4 4 2 1 4 3 0 0 0 0 0 0 0 0 0 0 0 0 0 0 0 0 0 0 0 5 0 2 5
1 0 0 0 0 15 1 0 0 0 0 2 0 0 1 1 1 2 0 0 9 5 0 0 0 0 0 0 0 0 0 0 0 0 0 0 1 0 0 0 0 0 0 0
0 0 0 2 7 0 0 0 0 0 0 0 0 0 1 1 2 1 2 10 1 6 0 0 0 0 0 0 0 0 0 0 0 0 0 0 0 0 0 0 0 0 0 0
0 0 4 3 1 0 0 0 1 1 0 4 0 2 0 2 0 0 8 0 0 0 0 0 0 0 0 0 0 0 0 0 0 0 0 0 0 0 0 0 0 0 0 0
0 0 0 1 0 1 0 0 0 0 0 0 2 0 0 5 4 0 0 0 0 0 0 0 0 0 0 0 0 0 0 0 0 0 0 0 0 0 0 0 0 0 0 0
0 0 0 0 0 0 0 0 0 0 0 0 0 0 2 0 0 0 0 0 0 0 0 0 0 0 0 0 0 0 0 0 0 0 0 0 0 0 0 0 0 0 0 0
0 0 0 0 0 0 0 0 0 0 0 0 0 0 0 0 0 0 0 0 0 0 0 0 0 0 0 0 0 0 0 0 0 0 0 0 0 0 0 0 0 0 0 0
0 0 0 0 0 0 0 0 0 0 0 0 0 0 0 0 0 0 0 0 0 1 0 0 0 0 0 0 0 0 0 0 0 0 0 0 0 0 0 0 0 0 0 0
0 0 0 0 0 0 0 0 0 0 0 0 0 0 0 0 0 0 0 0 0 0 0 0 0 0 0 0 0 0 0 0 0 0 0 0 0 0 0 0 0 0 0 0